Volk, WI

8:20 AM CDT on March 28, 2017 (GMT -0500)
Volk

Weather History for KVOK - March, 2013

Change the Weather History Date:

Tuesday, March 12, 2013

  Actual Average Record
Temperature  
Mean Temperature 24 °F -  
Max Temperature 28 °F 34 °F 68 °F (2016)
Min Temperature 21 °F 21 °F -2 °F (2009)
Degree Days  
Heating Degree Days 40    
Moisture  
Dew Point 21 °F    
Average Humidity 83    
Maximum Humidity 93    
Minimum Humidity 69    
Precipitation  
Precipitation 0.00 in - - ()
Snow  
Snow 0.00 in - - ()
Snow Depth 6.00 in    
Sea Level Pressure  
Sea Level Pressure 29.87 in    
Wind  
Wind Speed 11 mph (West)    
Max Wind Speed 20 mph    
Max Gust Speed 24 mph    
Visibility 9 miles    
Events Snow    
Averages and records for this station are not official NWS values.
T = Trace of Precipitation, MM = Missing Value Source: NWS Daily Summary

Daily Weather History Graph

Daily Weather History Graph

Search for Another Location

Airport or City:

Trip Planner

Search our weather history database for the weather conditions in past years. The results will help you decide how hot, cold, wet, or windy it might be!

Date:

Astronomy

Mar. 12, 2013 Rise Set
Actual Time 7:18 AM CDT 7:03 PM CDT
Civil Twilight 6:49 AM CDT 7:32 PM CDT
Nautical Twilight 6:16 AM CDT 8:06 PM CDT
Astronomical Twilight 5:42 AM CDT 8:40 PM CDT
Moon 7:21 AM CDT (3/12) 8:23 PM CDT (3/12)
Length of Visible Light 12h 43m
Length of Day
11h 45m
New Moon, 1% of the Moon is Illuminated
Mar 12
New Moon
Mar 19
First Quarter
Mar 27
Full
Apr 2
Last Quarter
Apr 10
New

Hourly Weather History & Observations

Time (CDT) Temp. Windchill Dew Point Humidity Pressure Visibility Wind Dir Wind Speed Gust Speed Precip Events Conditions
12:55 AM 26.6 °F 19.1 °F 23.5 °F 88% 29.81 in 10.0 mi West 6.9 mph - N/A   Overcast
1:14 AM 26.6 °F 18.2 °F 23.0 °F 86% 29.80 in 10.0 mi West 8.1 mph - N/A   Overcast
1:41 AM 26.6 °F 17.5 °F 23.0 °F 86% 29.80 in 8.0 mi West 9.2 mph - N/A Snow Light Snow
1:55 AM 26.6 °F 17.5 °F 24.1 °F 90% 29.81 in 10.0 mi West 9.2 mph - 0.00 in Snow Light Snow
2:22 AM 26.6 °F 16.8 °F 24.8 °F 93% 29.81 in 7.0 mi West 10.4 mph - N/A Snow Light Snow
2:32 AM 26.6 °F 17.5 °F 24.8 °F 93% 29.81 in 6.0 mi West 9.2 mph - N/A Snow Light Snow
2:33 AM 26.6 °F 17.5 °F 24.8 °F 93% 29.82 in 6.0 mi West 9.2 mph - N/A Snow Light Snow
2:35 AM 26.6 °F 16.8 °F 24.8 °F 93% 29.81 in 6.0 mi West 10.4 mph - N/A Snow Light Snow
2:36 AM 26.6 °F 16.8 °F 24.8 °F 93% 29.81 in 6.0 mi West 10.4 mph - N/A Snow Light Snow
2:37 AM 26.6 °F 16.8 °F 24.8 °F 93% 29.82 in 6.0 mi West 10.4 mph - N/A Snow Light Snow
2:39 AM 26.6 °F 16.2 °F 24.8 °F 93% 29.81 in 6.0 mi West 11.5 mph - N/A Snow Light Snow
2:41 AM 26.6 °F 16.8 °F 24.8 °F 93% 29.82 in 6.0 mi West 10.4 mph - N/A Snow Light Snow
2:49 AM 26.6 °F 17.5 °F 24.8 °F 93% 29.81 in 8.0 mi West 9.2 mph - N/A Snow Light Snow
2:55 AM 26.4 °F 17.3 °F 23.9 °F 90% 29.81 in 10.0 mi West 9.2 mph - 0.00 in Snow Light Snow
3:09 AM 26.6 °F 16.2 °F 24.8 °F 93% 29.81 in 6.0 mi West 11.5 mph - N/A Snow Light Snow
3:42 AM 26.6 °F 16.2 °F 23.0 °F 86% 29.81 in 10.0 mi West 11.5 mph - N/A Snow Light Snow
3:43 AM 26.6 °F 15.7 °F 23.0 °F 86% 29.81 in 10.0 mi West 12.7 mph - N/A Snow Light Snow
3:49 AM 26.6 °F 14.7 °F 23.0 °F 86% 29.81 in 10.0 mi West 15.0 mph - N/A   Mostly Cloudy
3:55 AM 26.2 °F 14.7 °F 23.4 °F 89% 29.81 in 10.0 mi West 13.8 mph - 0.00 in   Overcast
3:57 AM 26.6 °F 15.2 °F 23.0 °F 86% 29.81 in 10.0 mi West 13.8 mph - N/A   Overcast
4:00 AM 26.6 °F 15.7 °F 23.0 °F 86% 29.82 in 10.0 mi West 12.7 mph - N/A   Overcast
4:01 AM 26.6 °F 15.7 °F 23.0 °F 86% 29.81 in 10.0 mi West 12.7 mph - N/A   Overcast
4:03 AM 26.6 °F 15.7 °F 23.0 °F 86% 29.81 in 10.0 mi West 12.7 mph - N/A   Overcast
4:04 AM 26.6 °F 15.7 °F 23.0 °F 86% 29.81 in 10.0 mi West 12.7 mph - N/A   Overcast
4:55 AM 25.7 °F 15.1 °F 22.5 °F 88% 29.83 in 10.0 mi West 11.5 mph - N/A   Overcast
5:55 AM 24.3 °F 13.9 °F 20.8 °F 87% 29.84 in 10.0 mi West 10.4 mph - N/A   Overcast
6:16 AM 23.0 °F 13.1 °F 19.4 °F 86% 29.85 in 10.0 mi West 9.2 mph - N/A   Overcast
6:45 AM 21.2 °F 10.1 °F 19.4 °F 93% 29.85 in 10.0 mi West 10.4 mph - N/A   Scattered Clouds
6:55 AM 21.2 °F 10.9 °F 17.6 °F 86% 29.85 in 10.0 mi West 9.2 mph - N/A   Scattered Clouds
7:39 AM 21.2 °F 13.6 °F 17.6 °F 86% 29.86 in 10.0 mi West 5.8 mph - N/A   Overcast
7:55 AM 21.2 °F 11.7 °F 17.6 °F 86% 29.86 in 10.0 mi West 8.1 mph - N/A   Mostly Cloudy
8:55 AM 23.0 °F 12.4 °F 17.6 °F 80% 29.88 in 10.0 mi West 10.4 mph - N/A Snow Light Snow
9:55 AM 23.0 °F 12.4 °F 19.4 °F 86% 29.88 in 7.0 mi West 10.4 mph - N/A Snow Light Snow
10:55 AM 24.8 °F 14.6 °F 19.4 °F 80% 29.88 in 10.0 mi West 10.4 mph - N/A Snow Light Snow
11:55 AM 26.6 °F 16.8 °F 19.4 °F 74% 29.89 in 10.0 mi WNW 10.4 mph - N/A   Mostly Cloudy
12:55 PM 26.6 °F 15.2 °F 19.4 °F 74% 29.90 in 10.0 mi WNW 13.8 mph - N/A Snow Light Snow
1:20 PM 28.4 °F 17.0 °F 19.4 °F 69% 29.86 in 10.0 mi WNW 15.0 mph - N/A   Mostly Cloudy
1:55 PM 28.4 °F 19.1 °F 21.2 °F 74% 29.89 in 10.0 mi WNW 10.4 mph - N/A Snow Light Snow
2:55 PM 28.4 °F 17.5 °F 21.2 °F 74% 29.90 in 10.0 mi West 13.8 mph - N/A Snow Light Snow
3:45 PM 28.4 °F 16.6 °F 19.4 °F 69% 29.86 in 10.0 mi West 16.1 mph - N/A   Mostly Cloudy
3:55 PM 28.4 °F 16.2 °F 21.2 °F 74% 29.90 in 10.0 mi WNW 17.3 mph - N/A Snow Light Snow
4:55 PM 28.4 °F 17.0 °F 21.2 °F 74% 29.92 in 10.0 mi WNW 15.0 mph - N/A Snow Light Snow
5:42 PM 28.4 °F 16.2 °F 19.4 °F 69% 29.89 in 10.0 mi WNW 17.3 mph 23.0 mph N/A   Mostly Cloudy
5:55 PM 26.6 °F 13.1 °F 19.4 °F 74% 29.94 in 10.0 mi WNW 19.6 mph 24.2 mph N/A   Mostly Cloudy
6:55 PM 26.6 °F 15.2 °F 17.6 °F 69% 29.96 in 10.0 mi WNW 13.8 mph - N/A   Mostly Cloudy
7:55 PM 24.8 °F 14.0 °F 15.8 °F 69% 29.99 in 10.0 mi WNW 11.5 mph - N/A   Overcast
8:55 PM 24.8 °F 14.0 °F 15.8 °F 69% 30.01 in 10.0 mi West 11.5 mph - N/A   Overcast
9:49 PM 24.8 °F 13.4 °F 15.8 °F 69% 29.99 in 10.0 mi NW 12.7 mph - N/A Snow Light Snow
9:55 PM 24.8 °F 12.4 °F 17.6 °F 74% 30.04 in 10.0 mi NW 15.0 mph - N/A Snow Light Snow
10:04 PM 24.8 °F 12.9 °F 17.6 °F 74% 30.00 in 10.0 mi NW 13.8 mph - N/A Snow Light Snow
10:55 PM 23.0 °F 11.1 °F 17.6 °F 80% 30.07 in 10.0 mi NNW 12.7 mph - N/A Snow Light Snow
11:24 PM 21.2 °F 10.1 °F 17.6 °F 86% 30.04 in 10.0 mi NNW 10.4 mph - N/A Snow Light Snow
11:55 PM 21.2 °F 10.9 °F 17.6 °F 86% 30.10 in 10.0 mi NW 9.2 mph - N/A Snow Light Snow